Wind_Speed
19 21 22 22 22 22 23 24 24 25 26 28 30 31 33 34 35 36 37 38 39 40 41 41 41 41 41 42 42 42 42 42 42 41 43 43 42 42 41 42 42 42 42
20 22 23 24 24 24 24 25 26 27 28 31 33 34 36 36 37 38 39 40 40 40 40 41 41 41 41 42 42 43 43 43 43 42 43 44 44 43 42 43 44 43 43
22 23 25 25 25 26 26 27 28 30 31 33 35 37 38 39 39 40 40 41 41 40 40 39 39 39 40 40 41 41 41 42 42 42 42 43 44 44 43 44 44 45 44
24 25 27 27 28 28 28 29 30 31 33 35 37 39 40 41 41 41 42 41 41 40 39 38 37 37 37 38 38 38 39 40 40 41 41 42 43 44 44 44 45 45 46
26 27 28 29 30 30 30 32 33 33 35 37 39 41 42 42 42 42 42 41 40 38 37 36 36 35 35 36 36 36 37 37 38 39 39 40 41 42 43 44 45 45 45
28 29 30 31 32 32 33 34 34 35 37 40 41 42 43 43 42 42 41 40 39 37 36 35 34 34 33 33 34 34 35 35 36 38 38 39 40 41 42 42 44 44 44
29 30 31 32 33 35 36 37 38 39 40 42 43 43 43 43 43 42 41 39 37 36 35 34 33 32 32 31 32 33 33 34 35 36 37 38 40 41 41 42 43 44 44
31 32 33 34 36 38 40 41 41 41 43 44 45 45 44 44 44 42 40 37 36 35 34 33 32 31 31 30 30 31 32 33 34 35 36 38 40 41 42 42 42 43 44
33 34 35 36 38 41 43 44 43 44 45 45 45 46 45 44 43 41 39 36 35 34 33 33 31 30 30 30 30 31 31 32 34 34 35 36 37 39 41 42 42 43 44
37 38 38 40 42 45 46 46 46 46 47 47 47 46 45 44 43 41 39 37 35 34 33 32 31 30 30 31 31 31 31 32 33 34 35 35 37 39 40 41 42 43 44
40 41 43 45 46 47 48 48 49 49 49 49 47 46 45 44 42 40 38 37 35 33 32 32 31 31 31 32 32 32 32 32 33 34 35 35 36 38 39 40 42 43 44
43 44 46 48 49 49 50 49 50 51 50 50 49 47 46 44 41 39 39 37 35 33 32 32 31 31 32 32 32 32 32 32 32 33 33 34 35 36 38 39 40 42 44
46 48 50 51 51 52 52 52 53 54 53 52 50 48 46 44 42 40 38 37 35 33 32 32 32 32 31 31 32 32 32 32 32 32 32 33 34 35 36 38 39 41 43
49 50 52 53 54 53 53 54 54 54 54 53 51 48 46 44 42 40 38 37 36 34 32 32 32 32 32 31 31 30 30 30 30 31 31 31 32 33 34 36 39 41 43
51 52 53 54 54 55 55 55 56 56 56 54 51 49 46 43 42 40 39 37 36 34 32 32 32 32 32 31 30 29 28 28 27 27 28 29 30 31 33 35 37 40 42
53 55 56 56 56 57 57 57 57 57 55 53 50 48 45 43 40 39 38 36 35 34 32 32 31 31 30 29 28 27 27 26 26 26 26 27 29 31 32 34 36 38 40
55 56 58 58 59 59 59 59 59 57 54 52 49 46 43 40 38 37 37 35 33 33 32 31 30 29 28 28 27 26 26 26 25 25 26 26 28 29 31 33 35 37 39
58 59 60 61 62 61 60 59 57 55 53 50 47 44 42 39 37 36 35 33 32 32 31 30 28 28 27 26 26 25 25 25 25 25 25 26 27 28 30 32 34 36 39
62 62 62 62 62 60 59 56 54 52 50 47 44 42 40 37 35 34 33 32 31 31 30 28 27 27 26 26 25 25 24 24 24 25 24 25 25 27 28 30 33 35 38
64 63 63 62 61 58 56 53 50 48 46 43 42 40 38 36 34 33 32 31 30 29 28 27 27 27 27 26 26 25 24 23 23 23 23 23 23 24 25 28 31 34 36
63 62 60 59 57 54 52 49 46 45 43 41 39 37 36 34 33 31 30 30 29 28 27 27 27 27 27 25 25 23 23 22 22 22 21 21 20 21 22 24 27 31 34
62 60 58 56 53 51 48 46 44 42 40 38 36 36 34 32 31 30 29 28 28 28 27 27 27 27 26 25 24 23 22 22 21 20 19 19 19 19 19 20 24 28 33
60 58 56 53 50 48 46 43 41 39 37 36 35 34 32 30 28 28 28 27 27 27 27 26 25 25 24 23 23 22 22 21 20 19 19 18 17 17 17 18 21 25 31
57 55 52 49 47 44 41 39 37 35 34 33 32 31 30 29 28 27 26 26 27 26 25 25 24 24 23 22 21 21 20 20 20 19 18 17 16 15 15 17 20 23 28
53 50 47 43 41 39 36 34 33 32 32 30 29 29 28 27 26 25 25 25 25 24 24 24 23 23 22 22 20 20 20 19 19 18 17 16 15 14 14 15 18 22 27
46 43 41 39 36 34 32 31 29 29 28 27 27 26 25 24 24 24 24 24 23 23 23 23 22 22 21 21 20 20 19 18 17 16 15 14 13 13 13 16 18 21 25
Wind_Direction
319 320 320 320 319 318 318 319 319 320 320 320 319 319 317 315 312 309 307 304 301 297 294 290 286 284 281 278 275 273 271 269 266 264 262 260 257 253 249 246 244 242 242
315 316 317 316 316 317 317 318 319 319 320 321 321 320 319 318 315 313 310 308 304 300 296 292 287 283 281 278 275 272 269 267 264 262 260 259 257 253 250 247 244 242 240
312 313 314 313 313 314 315 317 319 319 320 321 321 320 320 320 318 316 313 310 306 303 298 294 290 285 281 278 275 272 269 266 263 261 259 258 256 253 250 247 244 241 239
311 313 313 313 312 312 313 316 318 318 319 320 321 321 321 320 320 318 315 312 308 305 301 296 292 287 283 279 276 272 269 266 263 260 258 256 255 253 251 247 244 241 239
311 313 313 313 311 311 312 314 316 317 319 320 320 320 320 320 320 318 315 313 310 306 302 297 293 289 285 281 277 273 270 267 264 261 258 256 254 252 250 247 244 241 239
311 312 312 312 312 310 310 311 313 315 318 320 319 320 321 321 320 318 315 313 310 306 303 299 295 291 286 282 277 274 271 268 265 262 259 256 254 252 249 246 243 240 238
309 310 310 311 312 311 311 310 311 313 316 319 320 320 321 321 320 317 315 313 310 306 303 299 296 291 287 283 278 275 272 270 266 263 260 257 254 252 249 245 242 239 236
307 308 309 309 310 312 313 312 311 313 316 317 319 320 320 320 319 317 314 312 310 306 303 300 296 291 288 285 280 277 275 272 268 264 260 258 254 251 248 245 242 238 235
305 307 309 309 311 313 314 313 312 313 315 315 316 318 319 318 317 316 313 311 309 306 303 300 297 292 289 287 283 280 277 272 268 265 261 259 255 252 248 245 242 239 235
304 306 308 310 312 314 313 313 313 314 314 314 315 317 317 316 315 313 311 310 308 306 303 300 296 293 290 288 286 282 278 273 270 267 264 259 256 253 249 245 242 239 235
304 306 308 309 311 312 313 313 314 315 314 313 316 316 315 314 312 310 309 308 306 304 302 299 297 294 291 288 287 284 280 276 273 269 265 261 257 253 250 246 242 238 234
304 306 308 309 310 311 312 313 314 315 314 314 315 315 314 312 310 308 307 306 304 303 302 299 297 295 292 289 287 284 281 278 274 271 267 262 257 253 249 245 241 237 233
302 304 306 306 307 308 309 311 312 313 313 313 314 313 312 310 308 307 305 304 303 302 301 299 297 295 293 290 288 285 282 279 276 272 268 263 258 252 248 244 241 238 234
299 301 302 303 305 306 308 309 309 310 311 312 312 312 311 308 307 306 304 303 302 302 300 298 297 295 293 290 288 284 283 281 278 273 268 263 259 253 248 245 241 237 234
298 300 301 302 303 305 306 307 307 307 309 309 309 309 308 306 305 304 303 302 302 302 300 299 298 296 293 290 287 285 283 282 278 274 269 263 258 254 249 245 241 237 233
298 299 300 301 302 302 303 304 305 306 306 305 306 306 305 303 302 302 301 301 301 301 300 299 299 298 294 289 286 283 283 281 277 274 270 265 260 255 250 246 242 238 234
298 298 299 299 300 300 301 302 303 303 303 303 303 303 301 299 299 299 299 299 299 299 299 299 300 299 295 291 286 284 283 280 278 276 272 268 264 258 252 248 244 238 234
297 297 298 298 298 298 298 299 299 299 299 300 300 298 297 296 296 297 298 298 297 297 299 299 298 298 295 292 288 285 283 279 278 278 276 272 267 261 255 250 244 238 232
296 296 296 296 296 296 296 296 295 295 296 297 295 295 294 294 294 295 296 296 297 297 297 297 296 297 295 293 289 286 284 282 280 280 279 275 270 264 257 250 243 237 231
295 295 295 295 295 294 294 294 293 293 293 292 292 292 291 292 292 293 294 295 296 296 297 296 294 294 294 292 289 287 283 282 282 282 281 278 274 268 260 250 241 234 228
294 294 294 293 293 293 292 291 290 289 288 288 289 289 290 291 290 290 291 292 293 294 294 293 291 292 293 291 287 284 283 282 283 283 282 280 276 270 261 250 239 229 223
294 293 292 291 290 289 289 288 287 285 285 286 286 287 288 287 287 287 288 290 291 292 293 291 290 292 291 289 286 282 280 281 281 281 280 279 277 271 261 248 235 225 217
294 293 291 290 288 287 286 285 284 283 281 282 284 285 285 284 284 285 286 287 288 290 291 290 289 290 288 286 284 281 278 278 278 277 276 277 276 269 257 244 231 220 213
293 292 291 289 286 284 282 281 281 279 277 279 281 281 282 282 282 283 283 285 287 289 290 290 290 288 287 284 282 280 279 277 276 274 272 271 268 262 254 240 226 215 209
293 292 290 287 284 281 278 275 273 272 274 277 278 279 279 279 280 281 284 285 286 287 289 290 289 288 286 283 280 279 278 275 273 270 266 264 259 254 243 228 218 209 204
294 291 288 284 281 277 274 270 267 268 272 274 276 277 276 277 278 279 282 284 285 287 288 290 289 288 287 283 278 278 276 272 268 265 260 256 251 243 232 220 211 205 202
Height
5840 5838 5835 5833 5830 5827 5824 5820 5816 5813 5809 5805 5801 5798 5794 5790 5786 5781 5777 5773 5770 5766 5763 5760 5757 5755 5753 5752 5751 5751 5751 5752 5754 5755 5756 5758 5762 5767 5771 5774 5778 5782 5786
5836 5834 5831 5828 5825 5822 5819 5815 5811 5808 5804 5800 5795 5791 5786 5781 5777 5772 5767 5763 5758 5754 5750 5747 5745 5742 5741 5739 5738 5738 5738 5739 5741 5743 5744 5746 5750 5754 5758 5762 5767 5771 5775
5832 5830 5827 5824 5821 5817 5813 5810 5806 5802 5797 5793 5788 5783 5778 5773 5767 5762 5757 5752 5747 5742 5738 5735 5732 5730 5728 5727 5726 5725 5725 5726 5728 5730 5732 5734 5737 5741 5746 5750 5755 5760 5764
5827 5825 5822 5818 5815 5811 5808 5804 5800 5795 5791 5786 5780 5775 5769 5763 5758 5752 5746 5741 5735 5731 5727 5723 5720 5718 5716 5714 5714 5713 5713 5714 5715 5717 5720 5722 5725 5728 5733 5737 5742 5747 5753
5821 5819 5816 5812 5809 5805 5801 5797 5793 5788 5783 5778 5772 5766 5760 5754 5748 5742 5736 5730 5725 5720 5716 5712 5709 5707 5705 5703 5702 5702 5702 5702 5703 5705 5707 5710 5713 5716 5720 5724 5730 5735 5741
5815 5812 5809 5805 5802 5798 5794 5790 5785 5781 5775 5770 5764 5757 5751 5744 5738 5732 5725 5720 5715 5710 5706 5702 5699 5696 5694 5693 5691 5691 5691 5691 5692 5693 5696 5698 5701 5704 5707 5712 5717 5724 5730
5809 5805 5802 5798 5794 5790 5786 5782 5777 5772 5766 5760 5754 5748 5741 5734 5728 5721 5715 5710 5705 5700 5696 5692 5689 5686 5684 5683 5681 5681 5680 5680 5681 5682 5684 5686 5688 5692 5696 5701 5705 5710 5717
5801 5798 5794 5790 5786 5782 5777 5772 5767 5762 5757 5751 5744 5738 5731 5724 5717 5711 5705 5700 5695 5690 5686 5682 5679 5677 5674 5673 5672 5671 5670 5670 5670 5671 5673 5674 5676 5679 5683 5688 5693 5699 5705
5793 5790 5786 5782 5777 5772 5767 5762 5757 5752 5746 5740 5734 5727 5720 5714 5707 5701 5695 5690 5686 5681 5677 5673 5670 5667 5665 5663 5662 5661 5660 5659 5659 5660 5662 5663 5664 5667 5671 5676 5681 5687 5694
5784 5780 5777 5772 5767 5763 5757 5751 5746 5740 5735 5729 5723 5716 5710 5703 5696 5691 5685 5681 5676 5672 5668 5664 5661 5658 5656 5654 5652 5651 5650 5649 5648 5649 5650 5651 5653 5656 5659 5664 5669 5675 5682
5774 5770 5766 5762 5757 5751 5746 5741 5735 5729 5723 5718 5712 5705 5699 5692 5686 5680 5675 5671 5667 5662 5659 5655 5652 5649 5647 5644 5642 5641 5639 5638 5638 5638 5638 5640 5641 5644 5647 5651 5657 5663 5669
5764 5760 5756 5751 5746 5740 5735 5730 5724 5718 5712 5706 5700 5694 5688 5682 5676 5670 5666 5661 5657 5653 5649 5645 5642 5639 5637 5634 5632 5630 5628 5627 5627 5626 5626 5628 5629 5632 5635 5639 5644 5650 5657
5754 5749 5745 5739 5734 5729 5723 5718 5712 5706 5700 5695 5689 5683 5677 5671 5665 5660 5656 5652 5647 5644 5640 5636 5633 5629 5627 5624 5622 5619 5618 5616 5615 5615 5615 5616 5617 5620 5623 5627 5632 5638 5644
5743 5738 5733 5728 5723 5717 5711 5706 5700 5694 5688 5682 5676 5670 5665 5660 5654 5649 5645 5641 5638 5634 5630 5627 5623 5619 5616 5614 5611 5609 5607 5606 5605 5604 5604 5605 5606 5608 5612 5616 5620 5626 5632
5731 5726 5720 5715 5710 5704 5699 5694 5688 5682 5676 5670 5664 5658 5653 5649 5644 5639 5635 5631 5627 5624 5620 5617 5613 5610 5607 5604 5602 5600 5598 5596 5595 5594 5594 5594 5595 5598 5601 5604 5608 5613 5620
5717 5712 5707 5701 5696 5691 5686 5681 5675 5670 5664 5658 5652 5647 5642 5637 5632 5628 5624 5621 5617 5614 5611 5607 5604 5600 5597 5594 5592 5591 5589 5587 5586 5585 5584 5585 5586 5587 5590 5593 5597 5602 5608
5703 5698 5692 5686 5681 5676 5670 5665 5660 5656 5650 5645 5640 5635 5630 5626 5622 5618 5614 5611 5608 5604 5601 5598 5595 5591 5588 5585 5583 5582 5580 5578 5577 5576 5575 5575 5576 5577 5579 5582 5585 5590 5595
5687 5682 5676 5671 5665 5660 5655 5650 5645 5640 5635 5631 5627 5623 5619 5615 5612 5608 5604 5602 5599 5595 5592 5589 5586 5583 5580 5577 5575 5573 5571 5570 5568 5567 5566 5566 5566 5566 5568 5570 5573 5577 5583
5670 5665 5659 5654 5649 5644 5639 5634 5630 5626 5621 5618 5614 5610 5607 5604 5601 5598 5594 5592 5589 5586 5583 5580 5577 5574 5572 5569 5567 5565 5563 5561 5560 5559 5558 5557 5556 5556 5557 5559 5562 5566 5571
5652 5647 5641 5636 5631 5626 5622 5618 5614 5611 5607 5604 5601 5598 5595 5592 5590 5588 5585 5582 5580 5577 5574 5571 5569 5566 5564 5561 5559 5557 5555 5554 5552 5551 5549 5548 5547 5546 5547 5548 5550 5555 5560
5633 5628 5623 5617 5613 5609 5605 5602 5599 5596 5593 5591 5588 5586 5583 5581 5579 5577 5575 5573 5570 5568 5565 5563 5560 5558 5555 5553 5551 5549 5548 5546 5545 5543 5542 5541 5539 5538 5538 5538 5541 5545 5550
5612 5608 5604 5599 5596 5592 5589 5587 5584 5582 5580 5578 5576 5575 5573 5571 5569 5567 5566 5564 5561 5559 5557 5554 5551 5549 5547 5545 5543 5542 5541 5539 5538 5537 5535 5534 5533 5532 5531 5532 5534 5537 5543
5592 5588 5584 5581 5578 5575 5573 5571 5570 5568 5567 5566 5565 5564 5562 5561 5559 5558 5557 5555 5553 5551 5548 5546 5543 5541 5539 5537 5536 5534 5533 5532 5531 5530 5529 5528 5527 5527 5526 5527 5529 5532 5537
5572 5568 5565 5563 5560 5559 5558 5557 5556 5555 5555 5554 5554 5553 5552 5551 5550 5549 5548 5546 5545 5543 5540 5538 5536 5533 5532 5530 5528 5527 5526 5525 5524 5524 5523 5523 5522 5522 5522 5523 5525 5528 5533
5553 5550 5547 5546 5544 5543 5543 5543 5543 5543 5543 5543 5543 5543 5543 5542 5541 5540 5540 5538 5537 5535 5533 5530 5528 5526 5524 5523 5521 5520 5520 5519 5518 5518 5518 5518 5518 5518 5519 5520 5522 5525 5530
5537 5534 5531 5530 5529 5529 5530 5530 5531 5531 5532 5533 5533 5534 5534 5534 5533 5533 5532 5531 5529 5527 5526 5524 5521 5519 5517 5516 5514 5514 5513 5513 5513 5513 5513 5514 5514 5515 5516 5518 5520 5524 5528